Home > Weather > Göttingen > Past weeks

Flag for Germany Weather for the Past 2 Weeks in Göttingen, Lower Saxony, Germany

Now
37 °F

Light snow. Passing clouds.


Feels Like: 32 °F
Forecast: 36 / 43 °F
Wind: 7 mph from East

Location: Fritzlar Airport

Current Time: Feb 14, 2016 at 12:44:34 AM

Latest Report: Feb 13, 2016 at 11:20 PM


Visibility: 6 mi

Pressure: 29.06 "Hg

Humidity: 87%

Dew point: 34 °F

Location of GöttingenLocation

Historic Weather in Göttingen — Graph

°F

Göttingen Temperature Yesterday

Maximum temperature yesterday: 39 °F (at 1:20 PM)
Minimum temperature yesterday: 25 °F (at 7:20 AM)
Average temperature yesterday: 33 °F

High & Low Weather Summary for the Past Weeks

 TemperatureHumidityPressure
High54 °F (Feb 1, 10:20 AM)100% (Feb 1, 5:20 AM)30.30 "Hg (Feb 1, 5:20 AM)
Low25 °F (Feb 13, 7:20 AM)53% (Feb 3, 3:20 PM)28.88 "Hg (Feb 9, 6:20 PM)
Average41 °F82%29.74 "Hg
* Reported Jan 29 11:20 PM — Feb 13 11:20 PM, Göttingen, Weather by CustomWeather, © 2016

Note: Actual official high and low records may vary slightly from our data, if they occured in-between our weather recording intervals... More about our weather records

Advertising

Göttingen Weather History for the Previous 24 Hours

 ConditionsComfort  
Time TempWeatherWind HumidityBarometerVisibility
11:20 PM
Sat, Feb 13
37 °FLight snow. Passing clouds.7 mph87%29.06 "Hg6 mi
10:20 PM36 °FPassing clouds.8 mph93%29.09 "Hg6 mi
9:20 PM36 °FLight rain. Partly cloudy.7 mph87%29.12 "Hg4 mi
8:20 PM34 °FLight rain. Passing clouds.6 mph93%29.15 "Hg4 mi
7:20 PM36 °FLight rain. Mostly cloudy.7 mph87%29.15 "Hg4 mi
6:20 PM36 °FLight rain. Overcast.6 mph87%29.18 "Hg4 mi
5:20 PM37 °FLight rain. Overcast.7 mph81%29.18 "Hg5 mi
4:20 PM39 °FPartly sunny.10 mph70%29.21 "HgN/A
3:20 PM39 °FPartly sunny.9 mph70%29.21 "HgN/A
2:20 PM39 °FPartly sunny.2 mph70%29.24 "HgN/A
1:20 PM39 °FPartly sunny.5 mph65%29.27 "HgN/A
12:20 PM37 °FPartly sunny.3 mph70%29.30 "HgN/A
11:20 AM36 °FScattered clouds.2 mph75%29.33 "HgN/A
10:20 AM32 °FPassing clouds.2 mph87%29.36 "HgN/A
9:20 AM28 °FPassing clouds.2 mph86%29.36 "HgN/A
8:20 AM25 °FFog.5 mph93%29.39 "HgN/A
7:20 AM25 °FFog.3 mph100%29.39 "HgN/A
6:20 AM27 °FFog.7 mph93%29.39 "HgN/A
5:20 AM27 °FChilly.7 mph93%29.39 "HgN/A
4:20 AM27 °FPassing clouds.5 mph93%29.39 "HgN/A
3:20 AM28 °FChilly.6 mph93%29.42 "HgN/A
2:20 AM28 °FPassing clouds.5 mph93%29.42 "HgN/A
1:20 AM28 °FPassing clouds.5 mph93%29.42 "HgN/A
12:20 AM28 °FChilly.6 mph93%29.42 "HgN/A
Weather by CustomWeather, © 2016

See weather overviewHow to use our weather pages